カタログに戻る

STARLINK-5480

運用中通信VLEO
NORAD 55664·PAYLOAD·🇺🇸 United States

打ち上げ Feb 17, 2023 から Vandenberg Space Force Base

Loading…

次のパス (今後24時間)

TLE

最新Source: CelesTrak SupGP

元期: Sep 14, 2026, 22:29 UTC

1 55664C 23021AN  26257.93729167 -.00001634  00000+0 -13697-3 0  2571
2 55664  70.0020  47.3793 0003054 277.3207 307.5130 14.98316666    10

AllMySatでSTARLINK-5480をリアルタイム追跡

Download on the App Store